Location: Unspecified
(48.2082°N, 0.0000°E)
Time: 22:46:37
(UTC+00:00)

Transit 4A - Pass Details

Date: 19 June 2019
Orbit: 862 x 982 km, 66.8° (Epoch: 19 July)

Event Time Altitude Azimuth Distance (km) Brightness Sun altitude
Rises 15:44:30 0° 325° (NW) 3,697 11.3 39.8°
Reaches altitude 10° 15:47:26 10° 335° (NNW) 2,745 10.7 39.3°
Maximum altitude 15:53:06 32° 37° (NE) 1,628 9.2 38.4°
Drops below altitude 10° 15:58:40 10° 99° (E) 2,698 10.0 37.5°
Sets 16:01:30 0° 109° (ESE) 3,624 10.5 37.0°
